Location: Bittkow
(50.3000°N, 19.0000°E)
Time: 23:29:43
(UTC+00:00)

Cosmos 972 - Pass Details

Date: 19 September 2020
Orbit: 711 x 1154 km, 75.8° (Epoch: 30 October)

Event Time Altitude Azimuth Distance (km) Brightness Sun altitude
Exits shadow 02:59:27 16° 215° (SW) 1,883 6.0 -14.3°
Maximum altitude 03:03:27 62° 294° (WNW) 814 4.4 -13.7°
Drops below altitude 10° 03:08:18 10° 16° (NNE) 2,200 7.3 -13.0°
Sets 03:10:39 0° 20° (NNE) 3,130 8.2 -12.7°
